This is the latest recevied weather packets stored in our database for station/object KC1TEM-13. If no packets are shown the sender has not sent any weather packets the latest 10 day(s).
| Time | Temp. | Humidity | Pressure | Rain* | Wind** | Luminosity | Snow |
|---|---|---|---|---|---|---|---|
| 1777941683 | 18.89° C | 38% | 1008.5 hPa | 0 mm | - | 0 W/m² | - |
| 1777941381 | 18.89° C | 38% | 1008.1 hPa | 0 mm | - | 0 W/m² | - |
| 1777941078 | 18.89° C | 37% | 1008.2 hPa | 0 mm | - | 0 W/m² | - |
| 1777940774 | 18.89° C | 37% | 1007.9 hPa | 0 mm | - | 0 W/m² | - |
| 1777940472 | 18.33° C | 36% | 1007.6 hPa | 0 mm | - | 0 W/m² | - |
| 1777940169 | 18.33° C | 35% | 1007.5 hPa | 0 mm | - | 0 W/m² | - |
| 1777939867 | 18.89° C | 36% | 1007.5 hPa | 0 mm | - | 0 W/m² | - |
| 1777939563 | 18.89° C | 35% | 1007.3 hPa | 0 mm | - | 0 W/m² | - |
| 1777939261 | 18.89° C | 35% | 1007.3 hPa | 0 mm | - | 0 W/m² | - |
| 1777938958 | 19.44° C | 34% | 1007.1 hPa | 0 mm | - | 1 W/m² | - |
| 1777938654 | 19.44° C | 33% | 1007.2 hPa | 0 mm | - | 1 W/m² | - |
| 1777938351 | 19.44° C | 33% | 1007.1 hPa | 0 mm | - | 2 W/m² | - |
| 1777938048 | 20° C | 33% | 1007 hPa | 0 mm | - | 4 W/m² | - |
| 1777937744 | 20° C | 33% | 1007.1 hPa | 0 mm | - | 5 W/m² | - |
| 1777937441 | 20° C | 32% | 1006.9 hPa | 0 mm | - | 7 W/m² | - |
| 1777937138 | 20° C | 32% | 1006.9 hPa | 0 mm | - | 10 W/m² | - |
| 1777936836 | 20.56° C | 32% | 1006.9 hPa | 0 mm | - | 12 W/m² | - |
| 1777936532 | 20.56° C | 31% | 1006.7 hPa | 0 mm | - | 15 W/m² | - |
| 1777936228 | 20.56° C | 30% | 1006.4 hPa | 0 mm | - | 17 W/m² | - |
| 1777935924 | 20.56° C | 31% | 1006.4 hPa | 0 mm | - | 20 W/m² | - |
| 1777935624 | 20.56° C | 30% | 1006.3 hPa | 0 mm | - | 22 W/m² | - |
| 1777935320 | 21.11° C | 30% | 1006.4 hPa | 0 mm | - | 25 W/m² | - |
| 1777935017 | 21.11° C | 32% | 1006.6 hPa | 0 mm | - | 31 W/m² | - |
| 1777934714 | 21.11° C | 30% | 1006.3 hPa | 0 mm | - | 36 W/m² | - |
| 1777934411 | 21.11° C | 29% | 1006.2 hPa | 0 mm | - | 39 W/m² | - |
* Rain latest hour (hover to see other rain measurements)
** Current wind speed in m/s (hover to see current wind gust speed)